Back to catalog

THORAD AGENA D DEB

AliveLEO
NORAD 4751·DEBRIS·🇺🇸 United States

Launched Apr 8, 1970 from Vandenberg Space Force Base

Loading…

Next Passes (next 24 hours)

TLE

FreshSource: Space-Track

Epoch: Sep 14, 2026, 06:23 UTC

1 04751U 70025CZ  26257.26612977  .00001272  00000-0  11083-2 0  9990
2 04751 100.1179   4.9894 0008317 194.8971 165.1939 13.88111914817928

Track THORAD AGENA D DEB in real time with AllMySat

Download on the App Store